Location: Aragüita
(10.0436°N, 67.8028°W)
Time: 13:49:23
(UTC+00:00)

Cosmos 1862 Rocket - Pass Details

Date: 23 January 2026
Orbit: 596 x 627 km, 82.5° (Epoch: 8 February)

Event Time Altitude Azimuth Distance (km) Brightness Sun altitude
Rises 22:51:02 0° 201° (SSW) 2,903 7.6 -5.1°
Reaches altitude 10° 22:53:26 10° 210° (SSW) 1,995 7.0 -5.7°
Maximum altitude 22:57:26 33° 275° (W) 1,044 5.5 -6.6°
Drops below altitude 10° 23:01:24 10° 340° (NNW) 1,984 6.2 -7.5°
Sets 23:03:47 0° 350° (N) 2,885 6.9 -8.1°
